Stations météo

réclame
Mon MeteoGroup
Chivenor, Grande-Bretagne (3707): Température de l'air & dewpoint: 17.07.2018 06:00:00 - 23.07.2018 06:00:00 (BST)Chivenor, Grande-Bretagne (3707): Température de l'air -20cm & Température de l'air -100cm: 17.07.2018 06:00:00 - 23.07.2018 06:00:00 (BST)Chivenor, Grande-Bretagne (3707): Vitesse du vent: 17.07.2018 06:00:00 - 23.07.2018 06:00:00 (BST)Chivenor, Grande-Bretagne (3707): Direction du vent: 17.07.2018 06:00:00 - 23.07.2018 06:00:00 (BST)Chivenor, Grande-Bretagne (3707): reduced air pressure: 17.07.2018 06:00:00 - 23.07.2018 06:00:00 (BST)Chivenor, Grande-Bretagne (3707): visibility: 17.07.2018 06:00:00 - 23.07.2018 06:00:00 (BST)Chivenor, Grande-Bretagne (3707): Quantités de précipitations: 17.07.2018 06:00:00 - 23.07.2018 06:00:00 (BST)
Date & Time tt [°C] td [°C] tt -20cm [°C] tt -100cm [°C] ff [km/h] ff [knt] dd ppp [hPa] vv [km] rr [mm]
23.07.2018 06:00:00 18,3 16,9 - - 5 3 E 1017,6 19 0,0
23.07.2018 05:00:00 18,4 16,8 - - 4 2 E 1017,7 35 0,0
23.07.2018 04:00:00 18,3 16,8 - - 0 0 N 1017,7 40 0,0
23.07.2018 03:00:00 18,5 16,7 - - 5 3 NW 1017,9 30 0,0
23.07.2018 02:00:00 18,6 16,7 - - 5 3 SSE 1018,2 35 0,0
23.07.2018 01:00:00 18,5 17,0 - - 2 1 SW 1018,4 21 0,0
23.07.2018 00:00:00 18,3 16,9 - - 0 0 N 1018,4 20 0,0
22.07.2018 23:00:00 18,3 16,6 - - 4 2 WNW 1018,4 24 0,0
22.07.2018 22:00:00 18,3 16,5 - - 5 3 WNW 1018,3 27 0,0
22.07.2018 21:00:00 18,8 16,4 - - 11 6 W 1017,9 35 0,0
22.07.2018 20:00:00 20,1 16,5 - - 13 7 W 1017,6 35 0,0
22.07.2018 19:00:00 20,5 16,6 - - 15 8 WNW 1017,4 30 0,0
22.07.2018 18:00:00 21,7 16,7 - - 16 9 W 1017,6 30 0,0
22.07.2018 17:00:00 21,9 15,9 - - 18 10 WNW 1017,5 45 0,0
22.07.2018 16:00:00 22,2 15,3 - - 21 11 WNW 1017,7 28 0,0
22.07.2018 15:00:00 22,6 15,6 - - 21 11 W 1017,6 15 0,0
22.07.2018 14:00:00 23,5 15,2 - - 21 11 W 1017,5 40 0,0
22.07.2018 13:00:00 23,1 14,7 - - 18 10 W 1017,6 40 0,0
22.07.2018 12:00:00 22,6 15,8 - - 13 7 W 1017,7 30 0,0
22.07.2018 11:00:00 21,3 16,2 - - 13 7 W 1017,7 50 0,0
22.07.2018 10:00:00 20,6 16,2 20,9 19,9 9 5 W 1017,7 45 0,0
22.07.2018 09:00:00 19,2 15,7 - - 8 4 WSW 1017,6 26 0,0
22.07.2018 08:00:00 17,9 14,8 - - 2 1 W 1017,4 22 0,0
22.07.2018 07:00:00 16,9 14,4 - - 4 2 SSW 1017,3 35 0,0
22.07.2018 06:00:00 16,3 14,1 - - 8 4 WNW 1017,1 29 0,0
22.07.2018 05:00:00 16,7 14,0 - - 8 4 NW 1017,0 45 0,0
22.07.2018 04:00:00 16,8 13,8 - - 11 6 NW 1017,0 30 0,0
22.07.2018 03:00:00 16,4 14,5 - - 5 3 W 1017,1 30 0,0
22.07.2018 02:00:00 16,2 14,4 - - 9 5 WNW 1017,3 35 0,0
22.07.2018 01:00:00 16,2 14,6 - - 11 6 NW 1017,5 40 0,0
22.07.2018 00:00:00 16,8 14,6 - - 9 5 WNW 1017,2 50 0,0
21.07.2018 23:00:00 17,0 14,8 - - 9 5 W 1017,1 40 0,0
21.07.2018 22:00:00 17,4 15,6 - - 9 5 W 1017,0 35 0,0
21.07.2018 21:00:00 17,9 15,3 - - 13 7 WNW 1016,5 50 0,0
21.07.2018 20:00:00 18,1 15,2 - - 15 8 WNW 1016,2 45 0,0
21.07.2018 19:00:00 21,0 15,1 - - 18 10 WNW 1015,7 45 0,0
21.07.2018 18:00:00 22,7 15,1 - - 18 10 NW 1015,7 35 0,0
21.07.2018 17:00:00 23,3 14,7 - - 13 7 NNW 1015,6 45 0,0
21.07.2018 16:00:00 23,5 15,0 - - 15 8 N 1015,5 40 0,0
21.07.2018 15:00:00 23,4 15,1 - - 15 8 N 1015,3 35 0,0
21.07.2018 14:00:00 23,3 16,2 - - 15 8 N 1015,1 50 0,0
21.07.2018 13:00:00 22,9 16,6 - - 9 5 NW 1015,0 28 0,0
21.07.2018 12:00:00 21,9 15,8 - - 4 2 SSW 1014,9 50 0,0
21.07.2018 11:00:00 20,5 16,0 - - 9 5 S 1014,7 50 0,0
21.07.2018 10:00:00 19,1 16,0 20,7 19,7 11 6 SE 1014,5 40 0,0
21.07.2018 09:00:00 18,1 16,2 - - 9 5 ESE 1014,2 40 0,0
21.07.2018 08:00:00 17,4 16,5 - - 11 6 E 1013,7 40 0,0
21.07.2018 07:00:00 17,2 16,6 - - 4 2 E 1013,4 40 0,0
21.07.2018 06:00:00 16,5 16,1 - - 9 5 ESE 1012,9 40 0,0
21.07.2018 05:00:00 16,5 16,1 - - 8 4 E 1012,7 45 0,0
21.07.2018 04:00:00 16,6 16,2 - - 8 4 SE 1012,7 15 0,0
21.07.2018 03:00:00 16,9 16,5 - - 8 4 E 1012,8 30 0,0
21.07.2018 02:00:00 17,0 16,6 - - 5 3 E 1013,0 14 0,2
21.07.2018 01:00:00 17,0 16,6 - - 4 2 ESE 1013,3 2,2 0,4
21.07.2018 00:00:00 17,1 16,8 - - 5 3 ESE 1013,5 6 0,8
20.07.2018 23:00:00 16,8 16,4 - - 4 2 W 1013,8 2,2 0,8
20.07.2018 22:00:00 16,8 16,3 - - 8 4 W 1013,9 6 0,4
20.07.2018 21:00:00 17,4 15,6 - - 9 5 W 1014,0 6 0,0
20.07.2018 20:00:00 18,1 14,7 - - 8 4 W 1014,2 23 0,0
20.07.2018 19:00:00 19,0 14,0 - - 13 7 WNW 1014,4 45 0,0
20.07.2018 18:00:00 19,3 13,5 - - 16 9 W 1014,7 50 0,0
20.07.2018 17:00:00 20,0 13,4 - - 22 12 WNW 1014,8 50 0,0
20.07.2018 16:00:00 20,8 14,4 - - 21 11 W 1015,0 30 0,0
20.07.2018 15:00:00 21,6 13,3 - - 18 10 W 1015,3 23 0,0
20.07.2018 14:00:00 21,2 11,7 - - 21 11 W 1015,5 45 0,0
20.07.2018 13:00:00 21,2 14,0 - - 21 11 W 1015,7 35 0,0
20.07.2018 12:00:00 20,0 13,0 - - 21 11 WNW 1016,1 19 0,0
20.07.2018 11:00:00 19,1 13,5 - - 18 10 WNW 1016,3 50 0,0
20.07.2018 10:00:00 19,3 13,5 20,0 19,7 18 10 WNW 1016,6 29 0,0
20.07.2018 09:00:00 17,1 14,6 - - 9 5 W 1016,7 35 0,0
20.07.2018 08:00:00 13,4 11,6 - - 4 2 E 1016,7 26 0,0
20.07.2018 07:00:00 12,5 11,3 - - 4 2 E 1016,9 24 0,0
20.07.2018 06:00:00 10,8 10,0 - - 5 3 E 1016,7 24 0,0
20.07.2018 05:00:00 10,9 9,7 - - 8 4 E 1017,1 35 0,0
20.07.2018 04:00:00 12,0 10,5 - - 4 2 E 1017,3 40 0,0
20.07.2018 03:00:00 12,3 10,9 - - 9 5 E 1017,6 35 0,0
20.07.2018 02:00:00 13,3 11,6 - - 4 2 ESE 1017,8 40 0,0
20.07.2018 01:00:00 13,5 11,4 - - 0 0 N 1018,1 45 0,0
20.07.2018 00:00:00 14,1 11,4 - - 2 1 NW 1018,4 40 0,0
19.07.2018 23:00:00 15,0 12,1 - - 8 4 NW 1018,5 45 0,0
19.07.2018 22:00:00 16,1 12,6 - - 8 4 WNW 1018,7 50 0,0
19.07.2018 21:00:00 17,0 12,3 - - 9 5 W 1018,7 50 0,0
19.07.2018 20:00:00 18,8 12,3 - - 16 9 WNW 1018,6 45 0,0
19.07.2018 19:00:00 20,0 10,6 - - 15 8 NW 1018,6 40 0,0
19.07.2018 18:00:00 21,1 12,1 - - 18 10 WNW 1018,5 50 0,0
19.07.2018 17:00:00 21,2 10,7 - - 18 10 NW 1018,8 40 0,0
19.07.2018 16:00:00 21,5 11,8 - - 21 11 WNW 1019,0 30 0,0
19.07.2018 15:00:00 21,2 9,9 - - 18 10 NW 1019,3 50 0,0
19.07.2018 14:00:00 21,4 10,4 - - 18 10 NW 1019,5 45 0,0
19.07.2018 13:00:00 21,8 10,9 - - 16 9 WNW 1019,7 30 0,0
19.07.2018 12:00:00 21,5 10,5 - - 18 10 W 1019,6 27 0,0
19.07.2018 11:00:00 20,5 11,4 - - 11 6 WSW 1019,8 30 0,0
19.07.2018 10:00:00 18,4 12,5 19,7 19,9 8 4 SW 1019,9 50 0,0
19.07.2018 09:00:00 16,1 12,1 - - 4 2 ESE 1020,1 35 0,0
19.07.2018 08:00:00 12,4 10,5 - - 8 4 E 1020,1 30 0,0
19.07.2018 07:00:00 11,2 10,1 - - 8 4 E 1020,3 24 0,0
19.07.2018 06:00:00 11,1 10,1 - - 8 4 ENE 1020,2 50 0,0
19.07.2018 05:00:00 11,2 9,8 - - 11 6 E 1020,1 50 0,0
19.07.2018 04:00:00 11,5 9,7 - - 9 5 E 1020,2 50 0,0
19.07.2018 03:00:00 12,4 10,2 - - 8 4 E 1020,1 50 0,0
19.07.2018 02:00:00 13,2 10,6 - - 5 3 ENE 1020,2 50 0,0
19.07.2018 01:00:00 13,6 9,2 - - 4 2 SE 1020,2 50 0,0
19.07.2018 00:00:00 13,9 9,1 - - 2 1 ENE 1020,1 50 0,0
18.07.2018 23:00:00 15,5 10,2 - - 0 0 N 1020,1 50 0,0
18.07.2018 22:00:00 16,0 10,8 - - 5 3 NW 1019,9 45 0,0
18.07.2018 21:00:00 18,5 11,5 - - 9 5 NW 1019,7 45 0,0
18.07.2018 20:00:00 19,6 11,8 - - 11 6 NW 1019,6 45 0,0
18.07.2018 19:00:00 19,3 11,9 - - 15 8 W 1019,2 45 0,0
18.07.2018 18:00:00 19,6 11,5 - - 16 9 WNW 1019,1 45 0,0
18.07.2018 17:00:00 21,2 10,8 - - 16 9 WNW 1019,1 45 0,0
18.07.2018 16:00:00 21,2 10,1 - - 15 8 WNW 1019,0 40 0,0
18.07.2018 15:00:00 21,7 11,5 - - 18 10 WNW 1018,8 40 0,0
18.07.2018 14:00:00 20,9 12,2 - - 21 11 WNW 1018,7 25 0,0
18.07.2018 13:00:00 19,2 13,3 - - 21 11 WNW 1018,6 30 0,0
18.07.2018 12:00:00 20,2 10,9 - - 8 4 W 1018,4 40 0,0
18.07.2018 11:00:00 19,8 13,8 - - 8 4 W 1018,5 35 0,0
18.07.2018 10:00:00 19,0 14,3 20,2 20,0 4 2 W 1018,4 30 0,0
18.07.2018 09:00:00 17,7 13,7 - - 4 2 SSE 1018,4 40 0,0
18.07.2018 08:00:00 17,2 13,5 - - 5 3 E 1018,0 50 0,0
18.07.2018 07:00:00 16,0 13,2 - - 9 5 E 1017,7 40 0,0
18.07.2018 06:00:00 15,3 12,7 - - 9 5 ESE 1017,4 50 0,0
18.07.2018 05:00:00 15,7 12,9 - - 9 5 SE 1017,3 50 0,0
18.07.2018 04:00:00 15,5 12,3 - - 9 5 ESE 1017,2 50 0,0
18.07.2018 03:00:00 13,3 11,3 - - 0 0 N - - 0,0
18.07.2018 02:00:00 16,6 12,6 - - 5 3 ESE 1017,4 50 0,0
18.07.2018 01:00:00 16,7 12,5 - - 4 2 E 1017,6 50 0,0
18.07.2018 00:00:00 17,1 12,7 - - 5 3 SSW 1017,7 45 0,0
17.07.2018 23:00:00 17,4 12,7 - - 9 5 SSW 1017,7 50 0,0
17.07.2018 22:00:00 18,0 12,8 - - 9 5 SW 1017,6 50 0,0
17.07.2018 21:00:00 18,4 13,1 - - 15 8 WSW 1017,2 45 0,0
17.07.2018 20:00:00 18,9 11,7 - - 18 10 W 1017,2 50 0,0
17.07.2018 19:00:00 19,1 12,2 - - 11 6 W 1016,9 40 0,0
17.07.2018 18:00:00 19,4 11,9 - - 16 9 W 1017,0 50 0,0
17.07.2018 17:00:00 19,7 12,4 - - 16 9 W 1017,1 45 0,0
17.07.2018 16:00:00 19,5 12,4 - - 13 7 W 1017,3 50 0,0
17.07.2018 15:00:00 19,4 10,9 - - 15 8 WSW 1017,5 50 0,0
17.07.2018 14:00:00 19,2 11,1 - - 16 9 W 1017,4 40 0,0
17.07.2018 13:00:00 19,1 12,1 - - 13 7 SW 1017,5 30 0,0
17.07.2018 12:00:00 18,1 11,1 - - 5 3 SW 1017,4 50 0,0
17.07.2018 11:00:00 17,3 12,0 - - 16 9 WNW 1017,4 45 0,0
17.07.2018 10:00:00 17,1 11,5 20,0 20,0 9 5 W 1016,9 35 0,0
17.07.2018 09:00:00 16,4 12,5 - - 9 5 WNW 1016,7 45 0,0
17.07.2018 08:00:00 14,6 13,1 - - 9 5 E 1016,4 35 0,0
17.07.2018 07:00:00 13,5 12,3 - - 11 6 E 1016,3 35 0,0
17.07.2018 06:00:00 12,8 11,7 - - 9 5 E 1015,9 40 0,0

tt = Température de l'air
td = dewpoint
tt -20cm = Température de l'air -20cm
tt -100cm = Température de l'air -100cm
ff = Vitesse du vent
dd = Direction du vent
ppp = reduced air pressure
vv = visibility
rr = Quantités de précipitations

stations d'obs. à proximité